#timestamp,LO_Frequency,Hit,StdDev 
1509541215.2,286047000.2,N
1509541235.9,286046999.9,N
1509541255.7,286047000.8,N
1509541275.6,286047000.4,N
1509541295.4,286047002.0,N
1509541315.2,286047001.8,N
1509541335.1,286047005.4,N
1509541336.0,286047005.4,N
1509541355.8,286047007.1,N
1509541375.6,286047005.1,N
1509541395.5,286047007.4,N
1509541415.3,286047006.5,N
1509541435.1,286047005.3,N
1509541455.9,286047006.6,N
1509541475.7,286047006.7,N
1509541495.5,286047005.0,N
1509541515.4,286047006.4,N
1509541535.2,286047008.7,N
1509541555.1,286047013.5,Y
1509541556.0,286047013.5,P
1509541575.8,286047004.6,N
1509541595.6,286047007.5,N
1509541615.5,286047004.9,N
1509541635.3,286047006.9,N
1509541655.1,286047007.0,N
1509541675.9,286047005.4,N
1509541695.7,286047004.6,N
1509541715.5,286047003.4,N
1509541735.4,286047001.3,N
1509541755.2,286047003.0,N
1509541775.0,286047002.9,N
1509541775.9,286047002.9,N
1509541795.8,286047005.1,N
1509541815.6,286047001.5,N
1509541835.4,286047002.3,N
1509541855.3,286047001.4,N
1509541875.1,286047004.4,N
1509541895.8,286046998.4,N
1509541915.7,286047002.7,N
1509541935.5,286046999.9,N
1509541955.3,286046999.5,N
1509541975.2,286046997.3,N
1509541995.0,286046997.9,N
1509541995.9,286046997.9,N
1509542015.8,286046997.0,N
1509542035.6,286047001.6,N
1509542055.4,286047003.8,N
1509542075.3,286047001.0,N
1509542095.1,286046995.3,N
1509542096.0,286046995.3,N
1509542115.8,286046996.4,N
1509542135.7,286046994.3,N
1509542155.5,286046996.1,N
1509542175.3,286046994.2,N
1509542195.2,286046996.7,N
1509542215.9,286046997.2,N
1509542235.7,286046995.0,N
1509542255.6,286046997.9,N
1509542275.4,286046998.7,N
1509542295.2,286047002.8,N
1509542315.1,286047001.6,N
1509542316.0,286047001.6,N
1509542335.8,286047001.0,N
1509542355.6,286046997.3,N
1509542375.5,286046995.6,N
1509542395.3,286046997.3,N
1509542415.1,286046997.2,N
1509542435.9,286046997.6,N
1509542455.7,286046995.6,N
1509542475.5,286046996.9,N
1509542495.4,286047000.9,N
1509542515.2,286047001.0,N
1509542535.0,286047000.6,N
1509542535.9,286047000.6,N
1509542555.8,286047000.4,N
1509542575.6,286046998.0,N
1509542595.4,286046997.2,N
1509542615.3,286046997.4,N
1509542635.1,286046996.5,N
1509542655.8,286046997.4,N
1509542675.7,286046997.9,N
1509542695.5,286046996.2,N
1509542715.3,286046996.5,N
1509542735.2,286046998.1,N
1509542755.0,286046993.3,Y
1509542755.9,286046993.3,P
1509542775.8,286046990.6,P
1509542795.6,286046988.1,P
1509542815.4,286046986.0,Y
1509542835.3,286046994.4,P
1509542855.1,286046994.9,P
1509542875.8,286046994.1,P
1509542895.7,286046992.0,Y
1509542915.5,286046999.6,P
1509542935.3,286046995.4,N
1509542955.2,286046995.8,N
1509542975.0,286046996.2,N
1509542975.9,286046996.2,N
1509542995.7,286046997.8,N
1509543015.6,286046999.5,N
1509543035.4,286046998.7,N
1509543055.3,286046999.1,N
1509543075.1,286046995.1,N
1509543076.0,286046995.1,N
1509543095.8,286046999.2,N
1509543115.7,286047000.3,N
1509543135.5,286047002.3,N
1509543155.3,286046998.2,N
1509543175.2,286046999.0,N
1509543195.9,286047002.1,N
1509543215.7,286047004.2,N
1509543235.6,286047003.6,N
1509543255.4,286047001.6,N
1509543275.2,286046995.3,N
1509543295.1,286046996.4,N
1509543296.0,286046996.4,N
1509543315.8,286046995.0,N
1509543335.6,286046994.2,N
1509543355.5,286046997.0,N
1509543375.3,286046995.5,N
1509543395.1,286046995.3,N
1509543415.9,286046998.2,N
1509543435.7,286047002.8,N
1509543455.5,286047006.0,N
1509543475.4,286047006.0,N
1509543495.2,286047006.6,N
1509543515.0,286047005.1,N
1509543515.9,286047005.1,N
1509543535.8,286047006.8,N
1509543555.6,286047009.0,N
1509543575.4,286047003.0,N
1509543595.3,286047003.8,N
1509543615.1,286047004.8,N
1509543635.8,286047004.5,N
1509543655.7,286047006.7,N
1509543675.5,286047005.0,N
1509543695.3,286047009.1,N
1509543715.2,286047008.4,N
1509543735.0,286047005.0,N
1509543735.9,286047005.0,N
1509543755.8,286047005.3,N
1509543775.6,286047003.6,N
1509543795.4,286047002.7,N
1509543815.3,286047003.9,N
1509543835.1,286047004.9,N
1509543836.0,286047004.9,N
1509543855.8,286047008.9,N
1509543875.7,286047006.4,N
1509543895.5,286047009.0,N
1509543915.3,286047006.1,N
1509543935.2,286047007.5,N
1509543955.9,286047005.0,N
1509543975.7,286047008.4,Y
1509543995.6,286047002.2,P
1509544015.4,286047000.2,N
1509544035.2,286046996.9,N
1509544055.1,286046998.9,N
1509544056.0,286046998.9,N
1509544075.8,286046997.1,N
1509544095.6,286046997.1,N
1509544115.5,286046997.1,N
1509544135.3,286046995.7,N
1509544155.1,286046994.8,N
1509544175.9,286046993.7,N
1509544195.7,286046996.1,N
1509544215.5,286046993.5,N
1509544235.4,286046994.3,N
1509544255.2,286046992.2,N
1509544275.0,286046994.6,N
1509544275.9,286046994.6,N
1509544295.8,286046991.2,N
1509544315.6,286046989.9,N
1509544335.5,286046991.6,N
1509544355.3,286046990.4,N
1509544375.1,286046992.2,N
1509544395.9,286046992.5,N
1509544415.7,286046992.1,N
1509544435.5,286046991.9,N
1509544455.4,286046993.3,N
1509544475.2,286046999.4,N
1509544495.0,286046995.0,N
1509544495.9,286046995.0,N
1509544515.8,286046997.3,N
1509544535.6,286046997.5,N
1509544555.4,286046997.3,N
1509544575.3,286046995.3,N
1509544595.1,286046997.8,N
1509544596.0,286046997.8,N
1509544615.8,286046995.5,N
1509544635.7,286046993.8,N
1509544655.5,286046998.3,N
1509544675.3,286046997.3,N
1509544695.2,286046999.2,N
1509544715.9,286046997.7,N
1509544735.7,286046992.4,N
1509544755.6,286046995.8,N
1509544775.4,286046997.5,N
1509544795.2,286046995.4,N
